| time (UTC) | temp C | wind direction | speed KPH | gust KPH | rain 1hr cm | rain 24hr cm | rain mn cm | humidity % | barometer mb |
| 20260831143427 | 20 | 84 | 6.4 | 11.3 | 0.00 | 0.00 | 0.00 | 74 | 1014.2 |
| 20260831142926 | 20 | 96 | 4.8 | 11.3 | 0.00 | 0.00 | 0.00 | 73 | 1014.1 |
| 20260831142426 | 19 | 104 | 3.2 | 6.4 | 0.00 | 0.00 | 0.00 | 74 | 1014.0 |
| 20260831141928 | 19 | 104 | 3.2 | 6.4 | 0.00 | 0.00 | 0.00 | 74 | 1013.9 |
| 20260831141924 | 19 | 104 | 3.2 | 6.4 | 0.00 | 0.00 | 0.00 | 74 | 1013.9 |
| 20260831140928 | 19 | 104 | 6.4 | 11.3 | 0.00 | 0.00 | 0.00 | 73 | 1013.8 |
| 20260831140924 | 19 | 104 | 3.2 | 6.4 | 0.00 | 0.00 | 0.00 | 73 | 1013.8 |
| 20260831135923 | 19 | 104 | 6.4 | 11.3 | 0.00 | 0.00 | 0.00 | 72 | 1013.6 |
| 20260831135422 | 18 | 104 | 4.8 | 11.3 | 0.00 | 0.00 | 0.00 | 74 | 1013.7 |
| 20260831134922 | 18 | 104 | 4.8 | 9.7 | 0.00 | 0.00 | 0.00 | 75 | 1013.6 |
| 20260831134422 | 18 | 104 | 4.8 | 9.7 | 0.00 | 0.00 | 0.00 | 72 | 1013.5 |
| 20260831133922 | 18 | 104 | 6.4 | 9.7 | 0.00 | 0.00 | 0.00 | 74 | 1013.5 |
| 20260831133422 | 18 | 104 | 8.0 | 9.7 | 0.00 | 0.00 | 0.00 | 72 | 1013.4 |
| 20260831132920 | 18 | 104 | 4.8 | 9.7 | 0.00 | 0.00 | 0.00 | 75 | 1013.4 |
| 20260831132420 | 18 | 104 | 4.8 | 6.4 | 0.00 | 0.00 | 0.00 | 78 | 1013.4 |
| 20260831132029 | 17 | 104 | 3.2 | 9.7 | 0.00 | 0.00 | 0.00 | 82 | 1013.4 |
| 20260831131925 | 17 | 104 | 4.8 | 9.7 | 0.00 | 0.00 | 0.00 | 79 | 1013.4 |
| 20260831131919 | 17 | 104 | 4.8 | 9.7 | 0.00 | 0.00 | 0.00 | 79 | 1013.4 |
| 20260831131029 | 17 | 104 | 1.6 | 4.8 | 0.00 | 0.00 | 0.00 | 86 | 1013.4 |
| 20260831125920 | 17 | 104 | 1.6 | 4.8 | 0.00 | 0.00 | 0.00 | 86 | 1013.2 |
| 20260831125420 | 17 | 104 | 4.8 | 12.9 | 0.00 | 0.00 | 0.00 | 88 | 1013.2 |
| 20260831124920 | 17 | 104 | 6.4 | 12.9 | 0.00 | 0.00 | 0.00 | 87 | 1013.5 |
| 20260831124421 | 17 | 96 | 8.0 | 12.9 | 0.00 | 0.00 | 0.00 | 87 | 1013.4 |
| 20260831123924 | 17 | 98 | 8.0 | 12.9 | 0.00 | 0.00 | 0.00 | 88 | 1013.2 |
| 20260831123918 | 17 | 98 | 9.7 | 14.5 | 0.00 | 0.00 | 0.00 | 88 | 1013.4 |
| 20260831122918 | 17 | 92 | 9.7 | 14.5 | 0.00 | 0.00 | 0.00 | 88 | 1013.2 |
| 20260831122418 | 17 | 98 | 11.3 | 14.5 | 0.00 | 0.00 | 0.00 | 87 | 1013.2 |
| 20260831121918 | 17 | 105 | 12.9 | 14.5 | 0.00 | 0.00 | 0.00 | 87 | 1013.2 |
| 20260831121418 | 17 | 111 | 12.9 | 14.5 | 0.00 | 0.00 | 0.00 | 85 | 1013.2 |
| 20260831120918 | 17 | 111 | 12.9 | 14.5 | 0.00 | 0.00 | 0.00 | 83 | 1013.1 |
| 20260831120418 | 17 | 113 | 12.9 | 14.5 | 0.00 | 0.00 | 0.00 | 79 | 1013.1 |
| 20260831115918 | 17 | 114 | 11.3 | 14.5 | 0.00 | 0.00 | 0.00 | 74 | 1013.0 |
| 20260831115418 | 17 | 119 | 11.3 | 12.9 | 0.00 | 0.00 | 0.00 | 72 | 1013.1 |
| 20260831114917 | 17 | 117 | 12.9 | 14.5 | 0.00 | 0.00 | 0.00 | 72 | 1013.1 |
| 20260831114415 | 17 | 117 | 11.3 | 14.5 | 0.00 | 0.00 | 0.00 | 71 | 1013.1 |
| 20260831113916 | 17 | 122 | 11.3 | 14.5 | 0.00 | 0.00 | 0.00 | 69 | 1013.0 |
| 20260831113416 | 17 | 120 | 11.3 | 14.5 | 0.00 | 0.00 | 0.00 | 70 | 1013.1 |
| 20260831112916 | 17 | 118 | 11.3 | 14.5 | 0.00 | 0.00 | 0.00 | 72 | 1013.1 |
| 20260831112415 | 17 | 111 | 11.3 | 14.5 | 0.00 | 0.00 | 0.00 | 72 | 1013.1 |
| 20260831111916 | 17 | 119 | 9.7 | 12.9 | 0.00 | 0.00 | 0.00 | 71 | 1013.1 |
| 20260831111414 | 17 | 111 | 11.3 | 16.1 | 0.00 | 0.00 | 0.00 | 72 | 1013.2 |
| 20260831110914 | 17 | 107 | 9.7 | 16.1 | 0.00 | 0.00 | 0.00 | 72 | 1013.4 |
| 20260831110414 | 18 | 122 | 9.7 | 16.1 | 0.00 | 0.00 | 0.00 | 72 | 1013.4 |
| 20260831105912 | 18 | 111 | 12.9 | 16.1 | 0.00 | 0.00 | 0.00 | 72 | 1013.4 |
| 20260831105410 | 18 | 105 | 11.3 | 14.5 | 0.00 | 0.00 | 0.00 | 73 | 1013.4 |
| 20260831104910 | 18 | 99 | 11.3 | 16.1 | 0.00 | 0.00 | 0.00 | 74 | 1013.4 |
| 20260831104409 | 18 | 101 | 11.3 | 16.1 | 0.00 | 0.00 | 0.00 | 74 | 1013.4 |
| 20260831103909 | 18 | 96 | 12.9 | 16.1 | 0.00 | 0.00 | 0.00 | 74 | 1013.2 |
| 20260831103408 | 18 | 95 | 12.9 | 16.1 | 0.00 | 0.00 | 0.00 | 74 | 1013.2 |
| 20260831102911 | 18 | 85 | 14.5 | 17.7 | 0.00 | 0.00 | 0.00 | 72 | 1013.4 |
| 20260831102907 | 18 | 86 | 12.9 | 17.7 | 0.00 | 0.00 | 0.00 | 73 | 1013.2 |
| 20260831101911 | 18 | 88 | 14.5 | 19.3 | 0.00 | 0.00 | 0.00 | 71 | 1013.2 |
| 20260831101907 | 18 | 86 | 14.5 | 19.3 | 0.00 | 0.00 | 0.00 | 72 | 1013.2 |
| 20260831100905 | 18 | 86 | 11.3 | 19.3 | 0.00 | 0.00 | 0.00 | 71 | 1013.4 |
| 20260831100409 | 18 | 45 | 8.0 | 14.5 | 0.00 | 0.00 | 0.00 | 69 | 1013.4 |
| 20260831100405 | 18 | 85 | 8.0 | 14.5 | 0.00 | 0.00 | 0.00 | 70 | 1013.4 |
| 20260831095406 | 18 | 53 | 8.0 | 14.5 | 0.00 | 0.00 | 0.00 | 68 | 1013.4 |
| 20260831094907 | 19 | 62 | 6.4 | 14.5 | 0.00 | 0.00 | 0.00 | 67 | 1013.2 |
| 20260831094407 | 19 | 65 | 3.2 | 8.0 | 0.00 | 0.00 | 0.00 | 67 | 1013.4 |
| 20260831094403 | 19 | 45 | 4.8 | 11.3 | 0.00 | 0.00 | 0.00 | 67 | 1013.2 |
| 20260831094012 | 19 | 56 | 3.2 | 8.0 | 0.00 | 0.00 | 0.00 | 66 | 1013.4 |
| 20260831092903 | 19 | 51 | 4.8 | 11.3 | 0.00 | 0.00 | 0.00 | 66 | 1013.4 |
| 20260831092403 | 19 | 52 | 6.4 | 12.9 | 0.00 | 0.00 | 0.00 | 66 | 1013.2 |
| 20260831091904 | 19 | 67 | 4.8 | 12.9 | 0.00 | 0.00 | 0.00 | 66 | 1013.1 |
| 20260831091404 | 19 | 53 | 3.2 | 8.0 | 0.00 | 0.00 | 0.00 | 66 | 1013.2 |
| 20260831090903 | 20 | 67 | 3.2 | 8.0 | 0.00 | 0.00 | 0.00 | 66 | 1013.4 |
| 20260831090404 | 20 | 69 | 1.6 | 4.8 | 0.00 | 0.00 | 0.00 | 65 | 1013.4 |
| 20260831085903 | 20 | 66 | 1.6 | 11.3 | 0.00 | 0.00 | 0.00 | 65 | 1013.4 |
| 20260831085407 | 20 | 67 | 8.0 | 11.3 | 0.00 | 0.00 | 0.00 | 64 | 1013.4 |
| 20260831085403 | 20 | 66 | 4.8 | 11.3 | 0.00 | 0.00 | 0.00 | 65 | 1013.5 |
| 20260831084404 | 20 | 42 | 9.7 | 14.5 | 0.00 | 0.00 | 0.00 | 63 | 1013.5 |
| 20260831083903 | 20 | 38 | 11.3 | 14.5 | 0.00 | 0.00 | 0.00 | 65 | 1013.5 |
| 20260831083404 | 20 | 34 | 11.3 | 14.5 | 0.00 | 0.00 | 0.00 | 64 | 1013.5 |
| 20260831082903 | 20 | 44 | 9.7 | 14.5 | 0.00 | 0.00 | 0.00 | 65 | 1013.5 |
| 20260831082403 | 21 | 36 | 9.7 | 12.9 | 0.00 | 0.00 | 0.00 | 66 | 1013.5 |
| 20260831081903 | 21 | 44 | 9.7 | 11.3 | 0.00 | 0.00 | 0.00 | 65 | 1013.5 |
| 20260831081408 | 21 | 46 | 9.7 | 11.3 | 0.00 | 0.00 | 0.00 | 67 | 1013.5 |
| 20260831081404 | 21 | 46 | 8.0 | 11.3 | 0.00 | 0.00 | 0.00 | 65 | 1013.5 |
| 20260831080407 | 21 | 46 | 9.7 | 11.3 | 0.00 | 0.00 | 0.00 | 67 | 1013.4 |
| 20260831080403 | 21 | 41 | 9.7 | 11.3 | 0.00 | 0.00 | 0.00 | 67 | 1013.4 |
| 20260831075403 | 21 | 46 | 9.7 | 11.3 | 0.00 | 0.00 | 0.00 | 67 | 1013.5 |
| 20260831074903 | 21 | 52 | 9.7 | 11.3 | 0.00 | 0.00 | 0.00 | 67 | 1013.4 |
| 20260831074403 | 21 | 57 | 9.7 | 11.3 | 0.00 | 0.00 | 0.00 | 67 | 1013.4 |
| 20260831073903 | 22 | 59 | 9.7 | 11.3 | 0.00 | 0.00 | 0.00 | 66 | 1013.2 |
| 20260831073407 | 22 | 52 | 8.0 | 9.7 | 0.00 | 0.00 | 0.00 | 67 | 1013.4 |
| 20260831073403 | 22 | 57 | 8.0 | 11.3 | 0.00 | 0.00 | 0.00 | 66 | 1013.4 |
| 20260831072402 | 22 | 52 | 6.4 | 9.7 | 0.00 | 0.00 | 0.00 | 66 | 1013.4 |
| 20260831071906 | 22 | 83 | 3.2 | 8.0 | 0.00 | 0.00 | 0.00 | 66 | 1013.4 |
| 20260831071902 | 22 | 72 | 4.8 | 8.0 | 0.00 | 0.00 | 0.00 | 66 | 1013.2 |
| 20260831070902 | 22 | 83 | 4.8 | 8.0 | 0.00 | 0.00 | 0.00 | 65 | 1013.5 |
| 20260831070402 | 22 | 36 | 4.8 | 6.4 | 0.00 | 0.00 | 0.00 | 64 | 1013.5 |
| 20260831065902 | 22 | 36 | 4.8 | 6.4 | 0.00 | 0.00 | 0.00 | 63 | 1013.5 |
| 20260831065402 | 22 | 36 | 4.8 | 8.0 | 0.00 | 0.00 | 0.00 | 63 | 1013.5 |
| 20260831064902 | 22 | 26 | 4.8 | 8.0 | 0.00 | 0.00 | 0.00 | 63 | 1013.5 |
| 20260831064402 | 22 | 12 | 4.8 | 6.4 | 0.00 | 0.00 | 0.00 | 63 | 1013.6 |
| 20260831063902 | 22 | 12 | 4.8 | 6.4 | 0.00 | 0.00 | 0.00 | 62 | 1013.5 |
| 20260831063359 | 22 | 12 | 4.8 | 6.4 | 0.00 | 0.00 | 0.00 | 62 | 1013.5 |
| 20260831062905 | 22 | 67 | 3.2 | 4.8 | 0.00 | 0.00 | 0.00 | 61 | 1013.6 |
| 20260831062859 | 22 | 67 | 3.2 | 4.8 | 0.00 | 0.00 | 0.00 | 61 | 1013.5 |
| 20260831061859 | 22 | 67 | 1.6 | 4.8 | 0.00 | 0.00 | 0.00 | 61 | 1013.5 |
| 20260831061359 | 22 | 67 | 1.6 | 4.8 | 0.00 | 0.00 | 0.00 | 61 | 1013.5 |
| 20260831060858 | 22 | 44 | 1.6 | 4.8 | 0.00 | 0.00 | 0.00 | 62 | 1013.4 |
| 20260831060358 | 22 | 44 | 3.2 | 6.4 | 0.00 | 0.00 | 0.00 | 61 | 1013.5 |
| 20260831055857 | 22 | 44 | 4.8 | 6.4 | 0.00 | 0.00 | 0.00 | 61 | 1013.5 |
| 20260831055356 | 22 | 44 | 3.2 | 6.4 | 0.00 | 0.00 | 0.00 | 61 | 1013.5 |
| 20260831054857 | 23 | 71 | 3.2 | 4.8 | 0.00 | 0.00 | 0.00 | 60 | 1013.6 |
| 20260831054357 | 23 | 70 | 3.2 | 4.8 | 0.00 | 0.00 | 0.00 | 61 | 1013.6 |
| 20260831053855 | 23 | 70 | 3.2 | 4.8 | 0.00 | 0.00 | 0.00 | 62 | 1013.6 |
| 20260831053354 | 23 | 70 | 3.2 | 4.8 | 0.00 | 0.00 | 0.00 | 62 | 1013.5 |
| 20260831052854 | 23 | 70 | 1.6 | 4.8 | 0.00 | 0.00 | 0.00 | 62 | 1013.5 |
| 20260831052355 | 23 | 71 | 1.6 | 3.2 | 0.00 | 0.00 | 0.00 | 60 | 1013.5 |
| 20260831051854 | 23 | 70 | 3.2 | 4.8 | 0.00 | 0.00 | 0.00 | 59 | 1013.5 |
| 20260831051352 | 23 | 70 | 3.2 | 4.8 | 0.00 | 0.00 | 0.00 | 59 | 1013.5 |
| 20260831050853 | 23 | 70 | 1.6 | 4.8 | 0.00 | 0.00 | 0.00 | 57 | 1013.5 |
| 20260831050353 | 23 | 23 | 0.0 | 3.2 | 0.00 | 0.00 | 0.00 | 51 | 1013.6 |
| 20260831045851 | 23 | 11 | 0.0 | 0.0 | 0.00 | 0.00 | 0.00 | 51 | 1013.5 |
| 20260831045351 | 23 | 11 | 1.6 | 3.2 | 0.00 | 0.00 | 0.00 | 55 | 1013.5 |
| 20260831044850 | 23 | 11 | 3.2 | 6.4 | 0.00 | 0.00 | 0.00 | 64 | 1013.5 |
| 20260831044350 | 22 | 5 | 4.8 | 6.4 | 0.00 | 0.00 | 0.00 | 65 | 1013.5 |
| 20260831043851 | 22 | 5 | 4.8 | 6.4 | 0.00 | 0.00 | 0.00 | 65 | 1013.5 |
| 20260831043352 | 23 | 5 | 4.8 | 6.4 | 0.00 | 0.00 | 0.00 | 64 | 1013.5 |
| 20260831042856 | 23 | 33 | 3.2 | 4.8 | 0.00 | 0.00 | 0.00 | 64 | 1013.4 |
| 20260831042852 | 23 | 5 | 3.2 | 6.4 | 0.00 | 0.00 | 0.00 | 65 | 1013.4 |
| 20260831041851 | 23 | 80 | 3.2 | 6.4 | 0.00 | 0.00 | 0.00 | 63 | 1013.4 |
| 20260831041644 | 23 | 190 | 0.0 | 1.6 | 0.00 | 0.00 | 0.00 | 59 | 1013.2 |
| 20260831041636 | 23 | 186 | 1.6 | 6.4 | 0.00 | 0.00 | 0.00 | 64 | 1013.2 |
| 20260831040351 | 23 | 190 | 0.0 | 1.6 | 0.00 | 0.00 | 0.00 | 59 | 1013.1 |
| 20260831035856 | 23 | 190 | 0.0 | 1.6 | 0.00 | 0.00 | 0.00 | 58 | 1013.1 |
| 20260831035852 | 23 | 190 | 0.0 | 1.6 | 0.00 | 0.00 | 0.00 | 59 | 1013.0 |
| 20260831034852 | 24 | 190 | 0.0 | 3.2 | 0.00 | 0.00 | 0.00 | 56 | 1013.0 |
| 20260831034352 | 24 | 190 | 3.2 | 6.4 | 0.00 | 0.00 | 0.00 | 56 | 1012.8 |
| 20260831033851 | 24 | 190 | 4.8 | 6.4 | 0.00 | 0.00 | 0.00 | 55 | 1012.7 |
| 20260831033351 | 24 | 190 | 4.8 | 6.4 | 0.00 | 0.00 | 0.00 | 54 | 1012.6 |
| 20260831032856 | 24 | 190 | 1.6 | 4.8 | 0.00 | 0.00 | 0.00 | 52 | 1012.5 |
| 20260831032852 | 24 | 190 | 3.2 | 4.8 | 0.00 | 0.00 | 0.00 | 54 | 1012.6 |
| 20260831031851 | 24 | 186 | 0.0 | 9.7 | 0.00 | 0.00 | 0.00 | 56 | 1012.6 |
| 20260831031351 | 24 | 186 | 3.2 | 9.7 | 0.00 | 0.00 | 0.00 | 57 | 1012.6 |
| 20260831030851 | 24 | 186 | 6.4 | 9.7 | 0.00 | 0.00 | 0.00 | 55 | 1012.5 |
| 20260831030351 | 24 | 194 | 8.0 | 9.7 | 0.00 | 0.00 | 0.00 | 53 | 1012.4 |
| 20260831025854 | 24 | 209 | 6.4 | 9.7 | 0.00 | 0.00 | 0.00 | 53 | 1012.4 |
| 20260831025850 | 24 | 219 | 8.0 | 9.7 | 0.00 | 0.00 | 0.00 | 52 | 1012.3 |
| 20260831024848 | 24 | 221 | 6.4 | 9.7 | 0.00 | 0.00 | 0.00 | 53 | 1012.4 |
| 20260831024348 | 24 | 230 | 6.4 | 9.7 | 0.00 | 0.00 | 0.00 | 59 | 1012.4 |
| 20260831023852 | 24 | 227 | 8.0 | 9.7 | 0.00 | 0.00 | 0.00 | 62 | 1012.4 |
| 20260831023848 | 24 | 226 | 6.4 | 9.7 | 0.00 | 0.00 | 0.00 | 60 | 1012.5 |
| 20260831022848 | 24 | 222 | 6.4 | 9.7 | 0.00 | 0.00 | 0.00 | 63 | 1012.4 |
| 20260831022350 | 24 | 207 | 6.4 | 9.7 | 0.00 | 0.00 | 0.00 | 61 | 1012.3 |
| 20260831022346 | 24 | 221 | 6.4 | 9.7 | 0.00 | 0.00 | 0.00 | 62 | 1012.3 |
| 20260831021350 | 25 | 236 | 6.4 | 11.3 | 0.00 | 0.00 | 0.00 | 61 | 1012.4 |
| 20260831021346 | 25 | 225 | 4.8 | 8.0 | 0.00 | 0.00 | 0.00 | 58 | 1012.4 |
| 20260831020346 | 25 | 244 | 6.4 | 11.3 | 0.00 | 0.00 | 0.00 | 58 | 1012.3 |
| 20260831015846 | 25 | 247 | 6.4 | 12.9 | 0.00 | 0.00 | 0.00 | 59 | 1012.2 |
| 20260831015347 | 26 | 246 | 6.4 | 12.9 | 0.00 | 0.00 | 0.00 | 58 | 1012.2 |
| 20260831014847 | 26 | 279 | 8.0 | 12.9 | 0.00 | 0.00 | 0.00 | 59 | 1012.4 |
| 20260831014345 | 26 | 267 | 8.0 | 12.9 | 0.00 | 0.00 | 0.00 | 58 | 1012.3 |
| 20260831013847 | 26 | 261 | 6.4 | 12.9 | 0.00 | 0.00 | 0.00 | 58 | 1012.4 |
| 20260831013346 | 26 | 235 | 4.8 | 12.9 | 0.00 | 0.00 | 0.00 | 56 | 1012.4 |
| 20260831012846 | 26 | 224 | 6.4 | 14.5 | 0.00 | 0.00 | 0.00 | 55 | 1012.4 |
| 20260831012346 | 25 | 242 | 9.7 | 14.5 | 0.00 | 0.00 | 0.00 | 53 | 1012.4 |
| 20260831011846 | 25 | 229 | 9.7 | 12.9 | 0.00 | 0.00 | 0.00 | 53 | 1012.4 |
| 20260831011351 | 26 | 236 | 8.0 | 12.9 | 0.00 | 0.00 | 0.00 | 51 | 1012.4 |
| 20260831011346 | 26 | 229 | 9.7 | 12.9 | 0.00 | 0.00 | 0.00 | 51 | 1012.4 |
| 20260831010350 | 25 | 247 | 8.0 | 12.9 | 0.00 | 0.00 | 0.00 | 57 | 1012.4 |
| 20260831010345 | 25 | 222 | 8.0 | 11.3 | 0.00 | 0.00 | 0.00 | 53 | 1012.4 |
| 20260831005344 | 25 | 238 | 9.7 | 12.9 | 0.00 | 0.00 | 0.00 | 56 | 1012.4 |
| 20260831004848 | 25 | 229 | 8.0 | 11.3 | 0.00 | 0.00 | 0.00 | 58 | 1012.4 |
| 20260831004844 | 25 | 234 | 8.0 | 12.9 | 0.00 | 0.00 | 0.00 | 58 | 1012.5 |
| 20260831003849 | 26 | 227 | 8.0 | 12.9 | 0.00 | 0.00 | 0.00 | 52 | 1012.4 |
| 20260831003844 | 26 | 232 | 8.0 | 12.9 | 0.00 | 0.00 | 0.00 | 57 | 1012.5 |
| 20260831002844 | 26 | 252 | 9.7 | 12.9 | 0.00 | 0.00 | 0.00 | 51 | 1012.5 |
| 20260831002344 | 26 | 223 | 9.7 | 12.9 | 0.00 | 0.00 | 0.00 | 49 | 1012.5 |
| 20260831001845 | 25 | 205 | 9.7 | 12.9 | 0.00 | 0.00 | 0.00 | 51 | 1012.5 |
| 20260831001344 | 25 | 223 | 8.0 | 12.9 | 0.00 | 0.00 | 0.00 | 55 | 1012.4 |
| 20260831000843 | 25 | 238 | 8.0 | 11.3 | 0.00 | 0.00 | 0.00 | 57 | 1012.5 |
| 20260831000342 | 25 | 237 | 8.0 | 11.3 | 0.00 | 0.00 | 0.00 | 51 | 1012.4 |
| 20260830235841 | 26 | 232 | 8.0 | 11.3 | 0.00 | 0.00 | 0.00 | 51 | 1012.5 |
| 20260830235342 | 26 | 226 | 8.0 | 11.3 | 0.00 | 0.00 | 0.00 | 53 | 1012.5 |
| 20260830234840 | 26 | 203 | 6.4 | 9.7 | 0.00 | 0.00 | 0.00 | 57 | 1012.5 |
| 20260830234340 | 26 | 238 | 6.4 | 9.7 | 0.00 | 0.00 | 0.00 | 55 | 1012.5 |
| 20260830233839 | 25 | 225 | 6.4 | 11.3 | 0.00 | 0.00 | 0.00 | 58 | 1012.6 |
| 20260830233340 | 25 | 242 | 8.0 | 11.3 | 0.00 | 0.00 | 0.00 | 60 | 1012.5 |
| 20260830232840 | 25 | 247 | 8.0 | 11.3 | 0.00 | 0.00 | 0.00 | 61 | 1012.6 |
| 20260830232343 | 25 | 242 | 8.0 | 11.3 | 0.00 | 0.00 | 0.00 | 62 | 1012.6 |
| 20260830232339 | 25 | 219 | 6.4 | 11.3 | 0.00 | 0.00 | 0.00 | 60 | 1012.6 |
| 20260830231340 | 26 | 232 | 6.4 | 9.7 | 0.00 | 0.00 | 0.00 | 59 | 1012.7 |
| 20260830231336 | 26 | 236 | 6.4 | 9.7 | 0.00 | 0.00 | 0.00 | 60 | 1012.7 |
| 20260830230334 | 26 | 227 | 4.8 | 9.7 | 0.00 | 0.00 | 0.00 | 57 | 1012.7 |
| 20260830225834 | 26 | 236 | 4.8 | 9.7 | 0.00 | 0.00 | 0.00 | 59 | 1012.8 |
| 20260830225332 | 26 | 214 | 4.8 | 8.0 | 0.00 | 0.00 | 0.00 | 60 | 1012.8 |
| 20260830224831 | 26 | 227 | 4.8 | 9.7 | 0.00 | 0.00 | 0.00 | 60 | 1012.8 |
| 20260830224331 | 26 | 227 | 4.8 | 9.7 | 0.00 | 0.00 | 0.00 | 56 | 1012.9 |
| 20260830223832 | 26 | 221 | 6.4 | 11.3 | 0.00 | 0.00 | 0.00 | 52 | 1012.9 |
| 20260830223335 | 26 | 220 | 6.4 | 11.3 | 0.00 | 0.00 | 0.00 | 56 | 1013.1 |
| 20260830223331 | 26 | 234 | 6.4 | 11.3 | 0.00 | 0.00 | 0.00 | 59 | 1013.0 |
| 20260830222336 | 26 | 212 | 6.4 | 14.5 | 0.00 | 0.00 | 0.00 | 61 | 1013.4 |
| 20260830222332 | 26 | 242 | 6.4 | 11.3 | 0.00 | 0.00 | 0.00 | 56 | 1013.2 |
| 20260830221938 | 26 | 186 | 6.4 | 14.5 | 0.00 | 0.00 | 0.00 | 54 | 1013.4 |
| 20260830220832 | 26 | 214 | 6.4 | 14.5 | 0.00 | 0.00 | 0.00 | 59 | 1013.4 |
| 20260830220332 | 26 | 193 | 6.4 | 14.5 | 0.00 | 0.00 | 0.00 | 60 | 1013.4 |
| 20260830215831 | 26 | 192 | 6.4 | 12.9 | 0.00 | 0.00 | 0.00 | 61 | 1013.6 |
| 20260830215332 | 25 | 219 | 8.0 | 12.9 | 0.00 | 0.00 | 0.00 | 62 | 1013.5 |
| 20260830214831 | 25 | 178 | 9.7 | 14.5 | 0.00 | 0.00 | 0.00 | 62 | 1013.6 |
| 20260830214331 | 26 | 202 | 9.7 | 16.1 | 0.00 | 0.00 | 0.00 | 60 | 1013.7 |
| 20260830213832 | 26 | 201 | 9.7 | 17.7 | 0.00 | 0.00 | 0.00 | 61 | 1013.8 |
| 20260830213332 | 26 | 176 | 9.7 | 17.7 | 0.00 | 0.00 | 0.00 | 59 | 1013.8 |
| 20260830212831 | 26 | 183 | 9.7 | 19.3 | 0.00 | 0.00 | 0.00 | 59 | 1013.9 |
| 20260830212331 | 26 | 209 | 9.7 | 19.3 | 0.00 | 0.00 | 0.00 | 61 | 1013.9 |
| 20260830211832 | 26 | 159 | 9.7 | 16.1 | 0.00 | 0.00 | 0.00 | 59 | 1013.8 |
| 20260830211332 | 26 | 146 | 8.0 | 16.1 | 0.00 | 0.00 | 0.00 | 62 | 1013.9 |
| 20260830210832 | 25 | 180 | 8.0 | 14.5 | 0.00 | 0.00 | 0.00 | 65 | 1014.0 |
| 20260830210332 | 25 | 203 | 6.4 | 14.5 | 0.00 | 0.00 | 0.00 | 61 | 1014.1 |
| 20260830205832 | 25 | 182 | 8.0 | 16.1 | 0.00 | 0.00 | 0.00 | 64 | 1014.1 |
| 20260830205332 | 25 | 190 | 8.0 | 16.1 | 0.00 | 0.00 | 0.00 | 60 | 1014.1 |
| 20260830204831 | 25 | 186 | 9.7 | 16.1 | 0.00 | 0.00 | 0.00 | 65 | 1014.1 |
| 20260830204335 | 25 | 165 | 11.3 | 19.3 | 0.00 | 0.00 | 0.00 | 62 | 1014.2 |
| 20260830204331 | 25 | 190 | 11.3 | 19.3 | 0.00 | 0.00 | 0.00 | 62 | 1014.2 |
| 20260830203938 | 26 | 169 | 8.0 | 17.7 | 0.00 | 0.00 | 0.00 | 60 | 1014.2 |
| 20260830202831 | 26 | 172 | 6.4 | 11.3 | 0.00 | 0.00 | 0.00 | 63 | 1014.2 |
| 20260830202335 | 26 | 209 | 8.0 | 16.1 | 0.00 | 0.00 | 0.00 | 61 | 1014.3 |
| 20260830202331 | 26 | 196 | 6.4 | 14.5 | 0.00 | 0.00 | 0.00 | 61 | 1014.3 |
| 20260830201938 | 26 | 160 | 8.0 | 16.1 | 0.00 | 0.00 | 0.00 | 59 | 1014.3 |
| 20260830200830 | 26 | 158 | 6.4 | 14.5 | 0.00 | 0.00 | 0.00 | 60 | 1014.3 |
| 20260830200329 | 26 | 202 | 8.0 | 14.5 | 0.00 | 0.00 | 0.00 | 62 | 1014.3 |
| 20260830195830 | 26 | 185 | 8.0 | 14.5 | 0.00 | 0.00 | 0.00 | 63 | 1014.3 |
| 20260830195333 | 26 | 171 | 8.0 | 17.7 | 0.00 | 0.00 | 0.00 | 63 | 1014.3 |
| 20260830195329 | 26 | 174 | 8.0 | 14.5 | 0.00 | 0.00 | 0.00 | 62 | 1014.3 |
| 20260830194937 | 25 | 132 | 8.0 | 17.7 | 0.00 | 0.00 | 0.00 | 61 | 1014.4 |
| 20260830194438 | 25 | 212 | 8.0 | 17.7 | 0.00 | 0.00 | 0.00 | 59 | 1014.4 |
| 20260830193329 | 25 | 150 | 9.7 | 17.7 | 0.00 | 0.00 | 0.00 | 67 | 1014.4 |
| 20260830192831 | 25 | 198 | 9.7 | 17.7 | 0.00 | 0.00 | 0.00 | 63 | 1014.4 |
| 20260830192331 | 25 | 170 | 8.0 | 16.1 | 0.00 | 0.00 | 0.00 | 63 | 1014.4 |
| 20260830191830 | 26 | 177 | 6.4 | 12.9 | 0.00 | 0.00 | 0.00 | 66 | 1014.5 |
| 20260830191329 | 26 | 184 | 6.4 | 14.5 | 0.00 | 0.00 | 0.00 | 64 | 1014.5 |
| 20260830190829 | 25 | 176 | 8.0 | 14.5 | 0.00 | 0.00 | 0.00 | 63 | 1014.5 |
| 20260830190329 | 25 | 147 | 8.0 | 14.5 | 0.00 | 0.00 | 0.00 | 65 | 1014.5 |
| 20260830185829 | 25 | 155 | 8.0 | 17.7 | 0.00 | 0.00 | 0.00 | 64 | 1014.5 |
| 20260830185329 | 25 | 122 | 6.4 | 17.7 | 0.00 | 0.00 | 0.00 | 63 | 1014.5 |
| 20260830184834 | 25 | 146 | 6.4 | 17.7 | 0.00 | 0.00 | 0.00 | 64 | 1014.5 |
| 20260830184830 | 25 | 126 | 6.4 | 17.7 | 0.00 | 0.00 | 0.00 | 62 | 1014.5 |
| 20260830183829 | 25 | 104 | 6.4 | 14.5 | 0.00 | 0.00 | 0.00 | 67 | 1014.5 |
| 20260830183327 | 25 | 131 | 6.4 | 17.7 | 0.00 | 0.00 | 0.00 | 66 | 1014.5 |
| 20260830182827 | 25 | 98 | 6.4 | 17.7 | 0.00 | 0.00 | 0.00 | 64 | 1014.5 |
| 20260830182327 | 25 | 148 | 6.4 | 14.5 | 0.00 | 0.00 | 0.00 | 66 | 1014.6 |
| 20260830181827 | 25 | 132 | 6.4 | 14.5 | 0.00 | 0.00 | 0.00 | 67 | 1014.5 |
| 20260830181326 | 25 | 126 | 8.0 | 14.5 | 0.00 | 0.00 | 0.00 | 69 | 1014.5 |
| 20260830180827 | 25 | 144 | 8.0 | 14.5 | 0.00 | 0.00 | 0.00 | 64 | 1014.5 |
| 20260830180327 | 25 | 127 | 6.4 | 14.5 | 0.00 | 0.00 | 0.00 | 67 | 1014.5 |
| 20260830175827 | 25 | 117 | 8.0 | 16.1 | 0.00 | 0.00 | 0.00 | 68 | 1014.5 |
| 20260830175327 | 25 | 109 | 9.7 | 17.7 | 0.00 | 0.00 | 0.00 | 67 | 1014.5 |
| 20260830174826 | 25 | 133 | 9.7 | 17.7 | 0.00 | 0.00 | 0.00 | 69 | 1014.4 |
| 20260830174325 | 24 | 121 | 8.0 | 16.1 | 0.00 | 0.00 | 0.00 | 70 | 1014.4 |
| 20260830173829 | 24 | 90 | 8.0 | 17.7 | 0.00 | 0.00 | 0.00 | 69 | 1014.4 |
| 20260830173824 | 24 | 88 | 8.0 | 17.7 | 0.00 | 0.00 | 0.00 | 70 | 1014.3 |
| 20260830172825 | 24 | 110 | 8.0 | 16.1 | 0.00 | 0.00 | 0.00 | 70 | 1014.3 |
| 20260830172325 | 25 | 129 | 6.4 | 16.1 | 0.00 | 0.00 | 0.00 | 69 | 1014.3 |
| 20260830171825 | 25 | 133 | 8.0 | 16.1 | 0.00 | 0.00 | 0.00 | 70 | 1014.3 |
| 20260830171325 | 25 | 142 | 8.0 | 16.1 | 0.00 | 0.00 | 0.00 | 68 | 1014.2 |
| 20260830170824 | 25 | 131 | 9.7 | 19.3 | 0.00 | 0.00 | 0.00 | 67 | 1014.2 |
| 20260830170325 | 25 | 121 | 11.3 | 19.3 | 0.00 | 0.00 | 0.00 | 62 | 1014.2 |
| 20260830165824 | 25 | 80 | 8.0 | 16.1 | 0.00 | 0.00 | 0.00 | 62 | 1014.1 |
| 20260830165323 | 25 | 135 | 8.0 | 16.1 | 0.00 | 0.00 | 0.00 | 64 | 1014.1 |
| 20260830164823 | 25 | 127 | 8.0 | 16.1 | 0.00 | 0.00 | 0.00 | 65 | 1014.1 |
| 20260830164323 | 25 | 90 | 11.3 | 19.3 | 0.00 | 0.00 | 0.00 | 64 | 1014.1 |
| 20260830163822 | 24 | 103 | 16.1 | 22.5 | 0.00 | 0.00 | 0.00 | 63 | 1014.1 |
| 20260830163326 | 25 | 105 | 12.9 | 25.7 | 0.00 | 0.00 | 0.00 | 62 | 1014.0 |
| 20260830163322 | 24 | 89 | 16.1 | 25.7 | 0.00 | 0.00 | 0.00 | 63 | 1014.0 |
| 20260830162323 | 25 | 94 | 11.3 | 17.7 | 0.00 | 0.00 | 0.00 | 61 | 1014.1 |
| 20260830161823 | 25 | 86 | 9.7 | 17.7 | 0.00 | 0.00 | 0.00 | 60 | 1014.0 |
| 20260830161322 | 25 | 116 | 8.0 | 14.5 | 0.00 | 0.00 | 0.00 | 62 | 1014.1 |
| 20260830160822 | 25 | 99 | 6.4 | 14.5 | 0.00 | 0.00 | 0.00 | 62 | 1014.1 |
| 20260830160322 | 24 | 51 | 6.4 | 11.3 | 0.00 | 0.00 | 0.00 | 62 | 1014.0 |
| 20260830155819 | 24 | 53 | 6.4 | 11.3 | 0.00 | 0.00 | 0.00 | 66 | 1014.0 |
| 20260830155319 | 23 | 51 | 8.0 | 16.1 | 0.00 | 0.00 | 0.00 | 65 | 1014.0 |
| 20260830154821 | 23 | 58 | 6.4 | 16.1 | 0.00 | 0.00 | 0.00 | 67 | 1014.0 |
| 20260830154817 | 22 | 93 | 4.8 | 9.7 | 0.00 | 0.00 | 0.00 | 67 | 1014.0 |
| 20260830153816 | 22 | 55 | 6.4 | 14.5 | 0.00 | 0.00 | 0.00 | 68 | 1014.1 |
| 20260830153317 | 22 | 62 | 8.0 | 14.5 | 0.00 | 0.00 | 0.00 | 69 | 1013.9 |
| 20260830152816 | 22 | 47 | 9.7 | 16.1 | 0.00 | 0.00 | 0.00 | 69 | 1013.9 |
| 20260830152314 | 22 | 39 | 11.3 | 16.1 | 0.00 | 0.00 | 0.00 | 69 | 1013.9 |
| 20260830151815 | 22 | 49 | 11.3 | 16.1 | 0.00 | 0.00 | 0.00 | 69 | 1013.9 |
| 20260830151319 | 22 | 59 | 11.3 | 16.1 | 0.00 | 0.00 | 0.00 | 69 | 1014.0 |
| 20260830151315 | 22 | 49 | 12.9 | 16.1 | 0.00 | 0.00 | 0.00 | 71 | 1014.0 |
| 20260830150315 | 22 | 76 | 11.3 | 16.1 | 0.00 | 0.00 | 0.00 | 69 | 1014.1 |
| 20260830145815 | 22 | 58 | 11.3 | 16.1 | 0.00 | 0.00 | 0.00 | 68 | 1014.0 |
| 20260830145315 | 22 | 64 | 12.9 | 17.7 | 0.00 | 0.00 | 0.00 | 68 | 1013.9 |
| 20260830144815 | 22 | 40 | 12.9 | 19.3 | 0.00 | 0.00 | 0.00 | 66 | 1013.9 |
| 20260830144315 | 22 | 58 | 14.5 | 19.3 | 0.00 | 0.00 | 0.00 | 66 | 1013.8 |